This demonstration page uses our WeatherBlox Daily Observations layout. Learn more.

Left ArrowRight Arrow

Hourly Observations for June 3, 2021

Temp ( °F °C ) Dew Point ( °F °C ) Humidity (%) Winds ( mph kmh ) Pressure ( in mb ) Visibility ( mi km ) Precip ( " mm )
12:56 am 00:56 Clear 59 15 48 8.9 67 67 SSW 6 9 29.97 1015 10 16 0.00 0.00
1:56 am 01:56 Clear 59 15 48 8.9 67 67 SSW 8 13 29.96 1015 10 16 0.00 0.00
2:56 am 02:56 Clear 58 14.4 49 9.4 72 72 SSW 7 11 29.96 1014 10 16 0.00 0.00
3:56 am 03:56 Clear 58 14.4 49 9.4 72 72 SSW 8 13 29.95 1014 10 16 0.00 0.00
4:56 am 04:56 Clear 58 14.4 50 10 75 75 SW 7 11 29.95 1014 10 16 0.00 0.00
5:56 am 05:56 Mostly Cloudy 58 14.4 51 10.6 78 78 SW 8 13 29.96 1015 10 16 0.00 0.00
6:56 am 06:56 Mostly Sunny 59 15 51 10.6 75 75 SW 8 13 29.96 1015 10 16 0.00 0.00
7:56 am 07:56 Sunny 63 17.2 53 11.7 70 70 SW 12 19 29.96 1015 10 16 0.00 0.00
8:56 am 08:56 Sunny 69 20.6 55 12.8 61 61 SSW 12 19 29.95 1014 10 16 0.00 0.00
9:56 am 09:56 Sunny 74 23.3 55 12.8 52 52 SW 13 20 29.96 1015 10 16 0.00 0.00
10:56 am 10:56 Sunny 76 24.4 56 13.3 50 50 SW 13 20 29.95 1014 10 16 0.00 0.00
11:52 am 11:52 Mostly Sunny 79 26 55 13 45 45 WSW 12 19 29.87 1012 10 16 0.00 0.00
11:56 am 11:56 Sunny 79 26.1 55 12.8 44 44 WSW 12 19 29.94 1014 10 16 0.00 0.00
12:03 pm 12:03 Mostly Sunny 79 26 55 13 45 45 SW 10 17 29.87 1012 10 16 0.00 0.00
12:56 pm 12:56 Sunny 81 27.2 55 12.8 41 41 SW 12 19 29.93 1014 10 16 0.00 0.00
1:56 pm 13:56 Sunny 82 27.8 56 13.3 41 41 SSW 15 24 29.91 1013 10 16 0.00 0.00
2:56 pm 14:56 Mostly Sunny 84 28.9 51 10.6 32 32 WNW 6 9 29.90 1012 10 16 0.00 0.00
3:56 pm 15:56 Mostly Sunny 84 28.9 52 11.1 33 33 WSW 12 19 29.88 1012 10 16 0.00 0.00
4:56 pm 16:56 Partly Cloudy 86 30 52 11.1 31 31 Calm 29.87 1012 10 16 0.00 0.00
5:56 pm 17:56 Mostly Sunny 86 30 49 9.4 28 28 W 8 13 29.86 1011 10 16 0.00 0.00
6:56 pm 18:56 Sunny 85 29.4 51 10.6 31 31 W 7 11 29.85 1011 10 16 0.00 0.00
7:56 pm 19:56 Sunny 81 27.2 56 13.3 42 42 SSE 7 11 29.85 1011 10 16 0.00 0.00
8:56 pm 20:56 Sunny 76 24.4 56 13.3 50 50 S 7 11 29.86 1011 10 16 0.00 0.00
9:56 pm 21:56 Clear 72 22.2 57 13.9 59 59 S 9 15 29.87 1012 10 16 0.00 0.00
10:56 pm 22:56 Clear 69 20.6 58 14.4 68 68 S 9 15 29.89 1012 10 16 0.00 0.00
11:56 pm 23:56 Clear 69 20.6 57 13.9 66 66 S 13 20 29.90 1013 10 16 0.00 0.00

Powered by AerisWeather